Skip Page Navigation
NASA JPL Caltech
NASA Logo - Jet Propulsion Laboratory + View the NASA Portal
+ Center for Near-Earth Object Studies
JPL Home Earth Solar System Stars & Galaxies Technology
JPL Solar System Dynamics
BODIES ORBITS EPHEMERIDES TOOLS PHYSICAL DATA DISCOVERY FAQ SITE MAP
JPL Small-Body Database Browser
Search: [ help ]  
102799 (1999 VO165)
Classification: Main-belt Asteroid          SPK-ID: 2102799
Ephemeris | Orbit Diagram | Orbital Elements | Mission Design | Physical Parameters | Discovery Circumstances | Close-Approach Data ]

[ show orbit diagram ]
Orbital Elements at Epoch 2459200.5 (2020-Dec-17.0) TDB
Reference: JPL 20 (heliocentric ecliptic J2000)
 Element Value Uncertainty (1-sigma)   Units 
e .01930265166822131 5.2506e-08  
a 2.765146129981302 1.838e-08 au
q 2.711771477422543 1.4576e-07 au
i 3.687720674294542 5.7215e-06 deg
node 6.016857906895579 6.3363e-05 deg
peri 224.1235164129519 0.00014048 deg
M 34.71636354702644 0.00012387 deg
tp 2459038.540180195697
(2020-Jul-08.04018020)
0.00057841 TDB
period 1679.48279060302
4.60
1.6745e-05
4.585e-08
d
yr
n .2143517051882036 2.1372e-09 deg/d
Q 2.818520782540061 1.8734e-08 au
  Orbit Determination Parameters
   # obs. used (total)      543  
   data-arc span      7527 days (20.61 yr)  
   first obs. used      1999-11-14  
   last obs. used      2020-06-23  
   planetary ephem.      DE431  
   SB-pert. ephem.      SB431-N16  
   condition code      0  
   norm. resid. RMS      .55838  
   source      ORB  
   producer      Otto Matic  
   solution date      2020-Nov-12 19:52:37  

Additional Information
 Earth MOID = 1.70114 au 
 Jupiter MOID = 2.14862 au 
 T_jup = 3.336 
[ show covariance matrix ]

Ephemeris | Orbit Diagram | Orbital Elements | Mission Design | Physical Parameters | Discovery Circumstances | Close-Approach Data ]

Physical Parameter Table
Parameter Symbol Value Units Sigma Reference Notes
absolute magnitude H 15.64   n/a E2021B55  

102799 (1999 VO165)          Discovered 1999-Nov-14 by LINEAR at Socorro
Reference: 20051019/Numbers.arcLast Updated: 2005-10-26

[ show close-approach data ]
Ephemeris | Orbit Diagram | Orbital Elements | Mission Design | Physical Parameters | Discovery Circumstances | Close-Approach Data ]
ABOUT SSD CREDITS/AWARDS PRIVACY/COPYRIGHT GLOSSARY LINKS
FirstGov 2021-Mar-09 00:54 UT
(server date/time)  
NASA Home Page
Site Manager:   Ryan S. Park
Webmaster  Alan B. Chamberlin